Regional Weather Roundup
Issued by NWS Midland/Odessa, TX

Skip options and go directly to product.
Home | Oldest Version | Previous Version | Current Version | All | Text Only | Save Text | Print | Product List | Glossary On

Skip product version selection by date and time.   
943
ASUS44 KMAF 210210
RWRMAF
MIDLAND AREA WEATHER ROUNDUP
NATIONAL WEATHER SERVICE MIDLAND TX
900 PM CDT SUN APR 20 2014

...IN SOUTHWEST TEXAS AND SOUTHEAST NEW MEXICO...

CITY           SKY/WX    TMP DP  RH WIND       PRES   REMARKS
ALPINE         PTCLDY    69  41  36 NE5       30.15R
ANDREWS        FAIR      73  42  32 W3        30.01R
ARTESIA        CLEAR     68  46  45 SW7       29.99R
BIG SPRING     CLEAR     69  58  68 S14       30.02R
CARLSBAD       CLEAR     70  44  39 SW8       29.99R
DRYDEN           N/A     71  65  81 E6        30.01R
FORT STOCKTON  PTCLDY    71  53  52 SE10      30.02R
GUAD PASS      CLEAR     63  36  36 W10       30.15R
HOBBS          CLEAR     68  41  37 W8        30.03R
MARFA          PTCLDY    68  34  28 NW7       30.14R
MIDLAND AIRPK  CLEAR     70  61  71 S12       30.00R
MIDLAND INTL   CLEAR     70  61  73 S15       30.00R
ODESSA         CLEAR     71  56  58 S12       30.01R
PECOS          PTCLDY    72  44  36 W7        29.99R
PRESIDIO       FAIR      82  37  19 N6        29.97R
SEMINOLE       CLEAR     71  46  40 W5        30.01R
SNYDER         CLEAR     69  59  70 SE10      29.98R
WINK           CLEAR     76  41  28 W7        29.98R
$$
...OTHER STATIONS IN TEXAS...

CITY           SKY/WX    TMP DP  RH WIND       PRES   REMARKS
ABILENE        CLOUDY    67  63  87 SE13      30.01F
AMARILLO       PTCLDY    60  50  69 SW8       29.97R
AUSTIN         CLOUDY    72  56  57 SE9       30.04R
BROWNSVILLE    MOCLDY    72  66  81 SE10      30.05R
CORPUS CHRISTI CLOUDY    72  64  76 SE13      30.05R
DALLAS FTW     LGT RAIN  63  60  90 NE5       30.06R FOG
DEL RIO        CLEAR     72  66  81 E9        30.00R
EL PASO        PTCLDY    74  34  23 W7        30.05R
HOUSTON INT    MOCLDY    70  56  61 S12       30.07S
LUBBOCK        MOCLDY    64  53  67 NE5       29.98R
SAN ANGELO     PTCLDY    69  63  81 S8        30.01R
SAN ANTONIO    CLOUDY    74  62  66 SE7       30.05R
WACO           CLOUDY    69  62  78 CALM      30.04S
WICHITA FALLS  NOT AVBL
$$
...OTHER LOCATIONS IN NEW MEXICO...

CITY           SKY/WX    TMP DP  RH WIND       PRES   REMARKS
ALAMAGORDO     CLEAR     66  37  34 SE6       30.07R
ALBUQUERQUE    MOCLDY    73  23  15 W12       30.06R
CANNON AFB     PTCLDY    63  44  50 W3        30.04R
CLOVIS           N/A     61  52  72 SW5       30.05R
HOLLOMAN AFB   CLEAR     71  40  31 SE6       30.05R
ROSWELL        PTCLDY    72  37  28 VRB5      29.98R
RUIDOSO        PTCLDY    55  37  50 SW10      30.20R
SANTA FE       MOCLDY    62  32  32 N7        30.09R
TRUTH OR CONSE MOCLDY    66  37  34 SW9       30.09R
TUCUMCARI      PTCLDY    65  40  39 NW10      29.99R
$$

USA.gov is the U.S. government's official web portal to all federal, state and local government web resources and services.